Regional Weather Roundup
Issued by NWS

Home | Current Version | Previous Version | Text Only | Print | Product List | Glossary On
Versions: 1 2 3 4 5 6 7 8 9 10 11 12 13 14 15 16 17 18 19 20 21 22 23 24 25 26 27 28 29 30 31 32 33 34 35 36 37 38 39 40 41 42 43 44 45 46 47 48 49 50
000
ASUS45 KTFX 301319
RWRMT
MONTANA HOURLY WEATHER ROUNDUP
NATIONAL WEATHER SERVICE GREAT FALLS MT
719 AM MDT WED JUL 30 2014

NOTE: "FAIR" INDICATES FEW OR NO CLOUDS BELOW 12000 FEET WITH NO
SIGNIFICANT WEATHER AND/OR OBSTRUCTIONS TO VISIBILITY.

* THESE STATIONS ARE NOT UNDER NWS QUALITY CONTROL. THEY DO NOT
   REPORT WEATHER SUCH AS PRECIPITATION OR FOG.

MTZ001>007-043-301400-
WEST OF THE DIVIDE
CITY           SKY/WX    TMP DP  RH WIND       PRES   REMARKS
KALISPELL      CLEAR     61  50  67 N7        30.12R
MISSOULA       PTCLDY    57  43  60 CALM      30.16S
BUTTE          PTCLDY    50  41  71 CALM      30.31S
MULLAN PASS    FAIR      70  36  29 SW3       30.29S
* LINCOLN      N/A       44  43  96 E1         N/A
* LOOKOUT PASS N/A       59  43  56 S2         N/A
* POLSON       N/A       61  44  54 N/A        N/A
* RONAN APT    CLEAR     54  46  74 N/A        N/A
* SEELEY LAKE  N/A       45  41  86 N/A        N/A
* THOMP F APT  CLEAR     56  42  60 NE2G8      N/A
* YAAK HILL    N/A       57  47  69 NE1        N/A
$$

MTZ008-052>055-301400-
SOUTHWEST MONTANA
CITY           SKY/WX    TMP DP  RH WIND       PRES   REMARKS
BOZEMAN        PTCLDY    55  48  77 CALM      30.26R
DILLON         PTCLDY    57  45  64 S8        30.29R
W YELLOWSTONE  FOG       45  45 100 CALM      30.41R VSB M1/4
* THREE FORKS  MOCLDY    52  52 100 N/A        N/A
* BOULDER HILL N/A       57  39  51 SW7        N/A
* MONIDA PASS  N/A       48  46  93 W3         N/A
* RAYNOLDS PAS N/A       45  27  49 S2         N/A
* WHITEHALL    N/A       53  46  77 N2         N/A
* WISE RIVER   N/A       49  43  80 SW3        N/A
$$

MTZ009>010-012-014-046-048-049-054-301400-
EAST SLOPES AND CENTRAL MONTANA
CITY           SKY/WX    TMP DP  RH WIND       PRES   REMARKS
CUT BANK       CLEAR     57  46  67 CALM      30.17S
GREAT FALLS    CLEAR     70  46  42 S9        30.17S
HELENA         PTCLDY    61  46  58 CALM      30.21F
MALMSTROM AFB  CLEAR     61  46  58 S3        30.18S
* CONRAD       CLEAR     48  46  93 N/A        N/A
* DEARBORN     N/A       56  46  69 S1         N/A
* EAST GLACIER N/A       57  43  60 NW9        N/A
* MONARCH      N/A       54  43  67 S11        N/A
* ROGERS PASS  N/A       61  42  50 NE1        N/A
* SAINT MARY   N/A       44  42  93 S3         N/A
* SWEET GRASS  N/A       63  41  45 S14        N/A
* WHITE SULPH  N/A       56  46  69 SE4G13     N/A
$$

MTZ011-013-016-021-035-040-045-047-050-051-301400-
NORTH CENTRAL MONTANA
CITY           SKY/WX    TMP DP  RH WIND       PRES   REMARKS
HAVRE          CLEAR     63  46  54 NW3       30.12S
LEWISTOWN      PTCLDY    59  45  60 SE6       30.24S
* CHINOOK      CLEAR     61  50  67 E6        30.13S
* FORT BENTON  CLEAR     64  45  50 CALM      30.16R
* CHESTER      N/A       64  42  45 S2G8       N/A
* DENTON       N/A       61  49  65 E1         N/A
* GEYSER       N/A       55  46  72 S7         N/A
* JUDITH GAP   N/A       57  49  75 N/A        N/A
* LOMA         N/A       62  43  50 NE9        N/A
$$

MTZ017>020-022>027-061-062-301400-
NORTHEAST MONTANA
CITY           SKY/WX    TMP DP  RH WIND       PRES   REMARKS
GLASGOW        FAIR      61  54  78 E7        30.18S
GLENDIVE       CLEAR     63  52  68 NW3       30.22S
JORDAN         CLEAR     55  41  59 CALM      30.20S
SIDNEY         PTCLDY    61  55  81 CALM      30.21R
WOLF POINT     CLEAR     57  54  90 CALM      30.20S
* BEAVER HILL  N/A       58  54  87 N/A        N/A
* CIRCLE       N/A       55  50  83 N/A        N/A
* LINDSAY DVD  N/A       58  53  84 NW1        N/A
$$

MTZ028>042-056>058-301400-
SOUTHCENTRAL AND SOUTHEAST MONTANA
CITY           SKY/WX    TMP DP  RH WIND       PRES   REMARKS
BAKER          CLEAR     55  52  90 CALM      30.23R
BILLINGS       PTCLDY    63  54  73 CALM      30.25R
LIVINGSTON     PTCLDY    52  46  80 NW5       30.29R
MILES CITY     CLEAR     61  46  58 CALM      30.21R
* LAUREL APT   PTCLDY    61  52  72 N/A        N/A
* ROUNDUP APT  PTCLDY    59  39  48 SE5        N/A
* ALZADA       N/A       57  53  87 NW2        N/A
* HYSHAM       N/A       63  39  41 W7         N/A
* LAME DEER    N/A       67  41  39 N/A        N/A
* REED POINT   N/A       53  52  96 W5         N/A
* ROSCOE HILL  N/A       64  38  38 S7         N/A
$$

REGIONAL REPORTS...DAKOTAS
CITY           SKY/WX    TMP DP  RH WIND       PRES   REMARKS
WILLISTON      CLEAR     55  54  96 NE3       30.19R
DICKINSON      FOG       55  55 100 CALM      30.18R
CROSBY         N/A       57  57 100 N3        30.21R
TIOGA          FOG       55  55 100 CALM      30.22S VSB 2 1/2
WATFORD CITY   FOG       55  55 100 CALM      30.18R
BISMARCK       CLEAR     61  57  87 NE3       30.18R
GRAND FORKS    FAIR      61  55  81 CALM      30.12S
FARGO          CLEAR     61  55  81 CALM      30.13S
BUFFALO SD     CLEAR     55  52  90 NW6       30.14R
RAPID CITY     CLEAR     61  55  81 NW7       30.20S
$$

REGIONAL REPORTS...WYOMING/IDAHO/WASHINGTON
CITY           SKY/WX    TMP DP  RH WIND       PRES   REMARKS
GILLETTE       PTCLDY    61  52  72 CALM      30.27S
SHERIDAN       PTCLDY    55  48  77 N3        30.27R
YELLOWSTONE LA MOCLDY    41  39  93 CALM      30.48S
SALMON         CLOUDY    55  54  96 CALM      30.23R
MULLAN PASS    FAIR      70  36  29 SW3       30.29S
SAND POINT     PTCLDY    54  50  86 CALM      30.07R
SPOKANE        PTCLDY    68  37  32 S6        30.04R
$$

REGIONAL REPORTS...ALBERTA
CITY           SKY/WX    TMP DP  RH WIND       PRES   REMARKS
CALGARY        FAIR      59  45  60 NW5       30.12S
LETHBRIDGE     PTCLDY    57  50  78 SW9       30.11S
MEDICINE HAT   MOCLDY    68  50  53 NW8       30.08R
EDMONTON       FOG       59  57  93 SW5       30.06R
WATERTON GATE  N/A       55  45  69 SW7        N/A
CARDSTON       N/A       55  48  77 SE5        N/A
MILK RIVER     N/A       57  46  67 W5         N/A
$$

REGIONAL REPORTS...SASKATCHEWAN
CITY           SKY/WX    TMP DP  RH WIND       PRES   REMARKS
SWIFT CURRENT  CLEAR     61  55  81 S14       30.15F
MOOSE JAW      FAIR      63  55  75 CALM      30.18S
REGINA         N/A       59  55  87 SE6       30.20S
VAL MARIE      N/A       59  55  87 NE3        N/A
ASSINIBOIA     N/A       57  54  90 SE6        N/A
CORONACH       N/A       54  54 100 W1         N/A

$$




USA.gov is the U.S. government's official web portal to all federal, state and local government web resources and services.